Flag for Germany Weather past 2 weeks in Laatzen, Lower Saxony, Germany

Now
64 °F

Partly sunny.


Feels Like: 64 °F
Forecast: 57 / 79 °F
Wind: 5 mph from West

Location: Hannover

Current Time: Jul 31, 2014 at 10:30:52 AM

Latest Report: Jul 31, 2014 at 10:00 AM


Visibility: 28 mi

Pressure: 30.01 "Hg

Humidity: 77%

Dew point: 57 °F

Location of LaatzenLocation

Historic Weather in Laatzen — Graph

°F

Laatzen temperature yesterday

Maximum temperature yesterday: 73 °F (at 5:00 PM)
Minimum temperature yesterday: 63 °F (at 8:00 AM)
Average temperature yesterday: 67 °F

Past Weeks' High & Low Weather Summary

 TemperatureHumidityPressure
High91 °F (Jul 19, 4:00 PM)100% (Jul 21, 7:00 AM)30.20 "Hg (Jul 21, 7:00 AM)
Low54 °F (Jul 17, 5:00 AM)25% (Jul 19, 4:00 PM)29.74 "Hg (Jul 29, 7:00 PM)
Average70 °F75%29.97 "Hg
* Reported Jul 16 10:00 AM — Jul 31 9:00 AM, Laatzen, Weather by CustomWeather, © 2014

Note: Actual official high and low records may vary slightly from our data, if they occured in-between our weather recording intervals... More about our weather records

Advertising

Laatzen weather history for previous 24 hours

 ConditionsComfort  
Time TempWeatherWind HumidityBarometerVisibility
9:00 AM
Jul 31
64 °FScattered clouds.5 mph82%30.00 "Hg25 mi
8:00 AM61 °FScattered clouds.2 mph90%29.99 "Hg19 mi
7:00 AM58 °FPartly sunny.1 mph95%29.99 "Hg16 mi
6:00 AM58 °FFog.2 mph93%29.98 "Hg12 mi
5:00 AM58 °FPassing clouds.2 mph95%29.97 "Hg19 mi
4:00 AM59 °FPassing clouds.2 mph94%29.96 "Hg12 mi
3:00 AM59 °FOvercast.2 mph95%29.96 "Hg12 mi
2:00 AM57 °FPassing clouds.2 mph98%29.95 "Hg19 mi
1:00 AM58 °FPassing clouds.1 mph94%29.95 "Hg19 mi
12:00 AM60 °FPassing clouds.1 mph91%29.94 "Hg19 mi
10:00 PM
Jul 30
63 °FPassing clouds.2 mph84%29.91 "Hg25 mi
9:00 PM66 °FScattered clouds.2 mph74%29.90 "Hg31 mi
8:00 PM70 °FPartly sunny.3 mph67%29.87 "Hg31 mi
7:00 PM72 °FPartly sunny.3 mph64%29.86 "Hg31 mi
6:00 PM71 °FOvercast.8 mph69%29.86 "Hg31 mi
5:00 PM73 °FPartly sunny.6 mph64%29.85 "Hg28 mi
4:00 PM71 °FOvercast.3 mph73%29.85 "Hg28 mi
3:00 PM70 °FOvercast.6 mph79%29.85 "Hg25 mi
2:00 PM69 °FOvercast.5 mph84%29.84 "Hg22 mi
1:00 PM69 °FLight rain. Overcast.6 mph88%29.84 "Hg19 mi
12:00 PM66 °FLow clouds.5 mph92%29.83 "Hg12 mi
11:00 AM65 °FLow clouds.5 mph97%29.82 "Hg8 mi
10:00 AM64 °FLight rain. Low clouds.3 mph99%29.81 "Hg5 mi
Weather by CustomWeather, © 2014

See weather overviewHow to use our weather pages